Tracking 19149 objects as of 20-Apr-2018
HD Live streaming from Space Station
objects crossing your sky now

SL-12 DEB

Track SL-12 DEB now!
10-day predictions


NORAD ID: 41704
Int'l Code: 2010-007W
Perigee: 969.0 km
Apogee: 17,986.1 km
Inclination: 65.2 °
Period: 330.9 minutes
Semi major axis: 15848 km
RCS: Unknown
Launch date: March 1, 2010
Source: Commonwealth of Independent States (former USSR) (CIS)
Launch site: TYURATAM MISSILE AND SPACE COMPLEX (TTMTR)

Note: This is SATELLITE DEBRIS
aabbcc
Your satellite tracking list
Your tracking list is empty




NASA's NSSDC Master Catalog

Two Line Element Set (TLE):
1 41704U 10007W   18109.30294987 -.00000488  00000-0 -15550-1 0  9994
2 41704  65.1601 187.6948 5368672  50.2519 346.0434  4.35129765 50246
Source of the keplerian elements: AFSPC